Time,TemperatureF,DewpointF,PressureIn,WindDirection,WindDirectionDegrees,WindSpeedMPH,WindSpeedGustMPH,Humidity,HourlyPrecipIn,Conditions,Clouds,dailyrainin,SolarRadiationWatts/m^2,SoftwareType,DateUTC
2014-02-10 00:02:00,43.0,43.0,-100.00,NNW,331,3.0,5.0,99,0.00,,,0.86,0.000000,,2014-02-10 08:02:00,
2014-02-10 00:11:00,43.0,43.0,-100.00,NNW,331,3.0,5.0,99,0.00,,,0.86,0.000000,,2014-02-10 08:11:00,
2014-02-10 00:22:00,43.0,43.0,-100.00,NNW,331,3.0,5.0,99,0.00,,,0.86,0.000000,,2014-02-10 08:22:00,
2014-02-10 00:32:00,42.0,42.0,-100.00,NW,323,3.0,5.0,99,0.00,,,0.86,0.000000,,2014-02-10 08:32:00,
2014-02-10 00:52:00,42.0,42.0,-100.00,NW,323,3.0,5.0,99,0.00,,,0.86,0.000000,,2014-02-10 08:52:00,
2014-02-10 01:02:00,42.0,42.0,-100.00,NW,323,3.0,5.0,99,0.00,,,0.86,0.000000,,2014-02-10 09:02:00,
2014-02-10 01:12:00,42.0,42.0,-100.00,NW,323,3.0,5.0,99,0.00,,,0.86,0.000000,,2014-02-10 09:12:00,
2014-02-10 01:21:00,42.0,42.0,-100.00,NW,323,3.0,5.0,99,0.00,,,0.86,0.000000,,2014-02-10 09:21:00,
2014-02-10 01:32:00,39.0,39.0,-100.00,NNW,333,3.0,5.0,99,0.00,,,0.86,0.000000,,2014-02-10 09:32:00,
2014-02-10 01:53:00,39.0,39.0,-100.00,NNW,333,3.0,5.0,99,0.00,,,0.86,0.000000,,2014-02-10 09:53:00,
2014-02-10 02:03:00,39.0,39.0,-100.00,NNW,333,3.0,5.0,99,0.00,,,0.86,0.000000,,2014-02-10 10:03:00,
2014-02-10 02:13:00,39.0,39.0,-100.00,NNW,333,3.0,5.0,99,0.00,,,0.86,0.000000,,2014-02-10 10:13:00,
2014-02-10 02:23:00,39.0,39.0,-100.00,NNW,333,3.0,5.0,99,0.00,,,0.86,0.000000,,2014-02-10 10:23:00,
2014-02-10 02:32:00,40.0,40.0,-100.00,NW,322,2.0,5.0,99,0.00,,,0.86,0.000000,,2014-02-10 10:32:00,
2014-02-10 02:53:00,40.0,40.0,-100.00,NW,322,2.0,5.0,99,0.00,,,0.86,0.000000,,2014-02-10 10:53:00,
2014-02-10 03:02:00,40.0,40.0,-100.00,NW,322,2.0,5.0,99,0.00,,,0.86,0.000000,,2014-02-10 11:02:00,
2014-02-10 03:12:00,40.0,40.0,-100.00,NW,322,2.0,5.0,99,0.00,,,0.86,0.000000,,2014-02-10 11:12:00,
2014-02-10 03:22:00,40.0,40.0,-100.00,NW,322,2.0,5.0,99,0.00,,,0.86,0.000000,,2014-02-10 11:22:00,
2014-02-10 03:32:00,40.0,40.0,-100.00,NNW,328,3.0,5.0,99,0.00,,,0.86,0.000000,,2014-02-10 11:32:00,
2014-02-10 03:53:00,40.0,40.0,-100.00,NNW,328,3.0,5.0,99,0.00,,,0.86,0.000000,,2014-02-10 11:53:00,
2014-02-10 04:01:00,40.0,40.0,-100.00,NNW,328,3.0,5.0,99,0.00,,,0.86,0.000000,,2014-02-10 12:01:00,
2014-02-10 04:12:00,40.0,40.0,-100.00,NNW,328,3.0,5.0,99,0.00,,,0.86,0.000000,,2014-02-10 12:12:00,
2014-02-10 04:21:00,40.0,40.0,-100.00,NNW,328,3.0,5.0,99,0.00,,,0.86,0.000000,,2014-02-10 12:21:00,
2014-02-10 06:32:00,37.0,37.0,-100.00,NW,320,2.0,4.0,100,-99.99,,,0.86,0.000000,,2014-02-10 14:32:00,
2014-02-10 07:11:00,37.0,37.0,-100.00,NW,320,2.0,4.0,100,-99.99,,,0.86,0.000000,,2014-02-10 15:11:00,
2014-02-10 07:21:00,37.0,37.0,-100.00,NW,320,2.0,4.0,100,-99.99,,,0.86,0.000000,,2014-02-10 15:21:00,
2014-02-10 07:32:00,37.0,37.0,-100.00,NNW,338,3.0,5.0,100,0.00,,,0.85,1.000000,,2014-02-10 15:32:00,
2014-02-10 07:53:00,37.0,37.0,-100.00,NNW,338,3.0,5.0,100,0.00,,,0.85,1.000000,,2014-02-10 15:53:00,
2014-02-10 08:04:00,37.0,37.0,-100.00,NNW,338,3.0,5.0,100,0.00,,,0.85,1.000000,,2014-02-10 16:04:00,
2014-02-10 08:13:00,37.0,37.0,-100.00,NNW,338,3.0,5.0,100,0.00,,,0.85,1.000000,,2014-02-10 16:13:00,
2014-02-10 08:24:00,37.0,37.0,-100.00,NNW,338,3.0,5.0,100,0.00,,,0.85,1.000000,,2014-02-10 16:24:00,
2014-02-10 08:32:00,37.0,37.0,-100.00,NNW,343,4.0,7.0,100,0.00,,,0.85,34.000000,,2014-02-10 16:32:00,
2014-02-10 08:53:00,37.0,37.0,-100.00,NNW,343,4.0,7.0,100,0.00,,,0.85,34.000000,,2014-02-10 16:53:00,
2014-02-10 09:02:00,37.0,37.0,-100.00,NNW,343,4.0,7.0,100,0.00,,,0.85,34.000000,,2014-02-10 17:02:00,
2014-02-10 09:12:00,37.0,37.0,-100.00,NNW,343,4.0,7.0,100,0.00,,,0.85,34.000000,,2014-02-10 17:12:00,
2014-02-10 09:23:00,37.0,37.0,-100.00,NNW,343,4.0,7.0,100,0.00,,,0.85,34.000000,,2014-02-10 17:23:00,
2014-02-10 09:32:00,45.0,45.0,-100.00,NNW,329,3.0,8.0,100,0.00,,,0.85,211.000000,,2014-02-10 17:32:00,
2014-02-10 09:53:00,45.0,45.0,-100.00,NNW,329,3.0,8.0,100,0.00,,,0.85,211.000000,,2014-02-10 17:53:00,
2014-02-10 10:02:00,45.0,45.0,-100.00,NNW,329,3.0,8.0,100,0.00,,,0.85,211.000000,,2014-02-10 18:02:00,
2014-02-10 10:12:00,45.0,45.0,-100.00,NNW,329,3.0,8.0,100,0.00,,,0.85,211.000000,,2014-02-10 18:12:00,
2014-02-10 10:21:00,45.0,45.0,-100.00,NNW,329,3.0,8.0,100,0.00,,,0.85,211.000000,,2014-02-10 18:21:00,
2014-02-10 10:32:00,50.0,48.0,-100.00,NNW,337,4.0,6.0,94,0.00,,,0.85,393.000000,,2014-02-10 18:32:00,
2014-02-10 10:52:00,50.0,48.0,-100.00,NNW,337,4.0,6.0,94,0.00,,,0.85,393.000000,,2014-02-10 18:52:00,
2014-02-10 11:02:00,50.0,48.0,-100.00,NNW,337,4.0,6.0,94,0.00,,,0.85,393.000000,,2014-02-10 19:02:00,
2014-02-10 11:11:00,50.0,48.0,-100.00,NNW,337,4.0,6.0,94,0.00,,,0.85,393.000000,,2014-02-10 19:11:00,
2014-02-10 11:21:00,50.0,48.0,-100.00,NNW,337,4.0,6.0,94,0.00,,,0.85,393.000000,,2014-02-10 19:21:00,
2014-02-10 11:32:00,55.0,48.0,-100.00,NNW,347,3.0,6.0,77,0.00,,,0.81,542.000000,,2014-02-10 19:32:00,
2014-02-10 11:52:00,55.0,48.0,-100.00,NNW,347,3.0,6.0,77,0.00,,,0.81,542.000000,,2014-02-10 19:52:00,
2014-02-10 12:01:00,55.0,48.0,-100.00,NNW,347,3.0,6.0,77,0.00,,,0.81,542.000000,,2014-02-10 20:01:00,
2014-02-10 12:11:00,55.0,48.0,-100.00,NNW,347,3.0,6.0,77,0.00,,,0.81,542.000000,,2014-02-10 20:11:00,
2014-02-10 12:22:00,55.0,48.0,-100.00,NNW,347,3.0,6.0,77,0.00,,,0.81,542.000000,,2014-02-10 20:22:00,
2014-02-10 12:32:00,59.0,47.0,-100.00,NNE,22,2.0,5.0,65,0.00,,,0.68,470.000000,,2014-02-10 20:32:00,
2014-02-10 12:52:00,59.0,47.0,-100.00,NNE,22,2.0,5.0,65,0.00,,,0.68,470.000000,,2014-02-10 20:52:00,
2014-02-10 13:02:00,59.0,47.0,-100.00,NNE,22,2.0,5.0,65,0.00,,,0.68,470.000000,,2014-02-10 21:02:00,
2014-02-10 13:22:00,59.0,47.0,-100.00,NNE,22,2.0,5.0,65,0.00,,,0.68,470.000000,,2014-02-10 21:22:00,
2014-02-10 13:32:00,62.0,46.0,-100.00,SSE,164,3.0,7.0,55,0.00,,,0.56,605.000000,,2014-02-10 21:32:00,
2014-02-10 13:53:00,62.0,46.0,-100.00,SSE,164,3.0,7.0,55,0.00,,,0.56,605.000000,,2014-02-10 21:53:00,
2014-02-10 14:03:00,62.0,46.0,-100.00,SSE,164,3.0,7.0,55,0.00,,,0.56,605.000000,,2014-02-10 22:03:00,
2014-02-10 14:13:00,62.0,46.0,-100.00,SSE,164,3.0,7.0,55,0.00,,,0.56,605.000000,,2014-02-10 22:13:00,
2014-02-10 14:23:00,62.0,46.0,-100.00,SSE,164,3.0,7.0,55,0.00,,,0.56,605.000000,,2014-02-10 22:23:00,
2014-02-10 14:32:00,59.0,43.0,-100.00,South,188,4.0,9.0,55,0.00,,,0.37,477.000000,,2014-02-10 22:32:00,
2014-02-10 14:53:00,59.0,43.0,-100.00,South,188,4.0,9.0,55,0.00,,,0.37,477.000000,,2014-02-10 22:53:00,
2014-02-10 15:02:00,59.0,43.0,-100.00,South,188,4.0,9.0,55,0.00,,,0.37,477.000000,,2014-02-10 23:02:00,
2014-02-10 15:12:00,59.0,43.0,-100.00,South,188,4.0,9.0,55,0.00,,,0.37,477.000000,,2014-02-10 23:12:00,
2014-02-10 15:22:00,59.0,43.0,-100.00,South,188,4.0,9.0,55,0.00,,,0.37,477.000000,,2014-02-10 23:22:00,
2014-02-10 15:32:00,57.0,44.0,-100.00,SSE,154,3.0,10.0,62,0.00,,,0.21,188.000000,,2014-02-10 23:32:00,
2014-02-10 15:53:00,57.0,44.0,-100.00,SSE,154,3.0,10.0,62,0.00,,,0.21,188.000000,,2014-02-10 23:53:00,
2014-02-10 16:02:00,57.0,44.0,-100.00,SSE,154,3.0,10.0,62,0.00,,,0.21,188.000000,,2014-02-11 00:02:00,
2014-02-10 16:11:00,57.0,44.0,-100.00,SSE,154,3.0,10.0,62,0.00,,,0.21,188.000000,,2014-02-11 00:11:00,
2014-02-10 16:21:00,57.0,44.0,-100.00,SSE,154,3.0,10.0,62,0.00,,,0.21,188.000000,,2014-02-11 00:21:00,
2014-02-10 16:52:00,53.0,44.0,-100.00,SSW,196,2.0,6.0,72,0.00,,,0.13,95.000000,,2014-02-11 00:52:00,
2014-02-10 17:01:00,53.0,44.0,-100.00,SSW,196,2.0,6.0,72,0.00,,,0.13,95.000000,,2014-02-11 01:01:00,
2014-02-10 17:11:00,53.0,44.0,-100.00,SSW,196,2.0,6.0,72,0.00,,,0.13,95.000000,,2014-02-11 01:11:00,
2014-02-10 17:21:00,53.0,44.0,-100.00,SSW,196,2.0,6.0,72,0.00,,,0.13,95.000000,,2014-02-11 01:21:00,
2014-02-10 17:31:00,53.0,44.0,-100.00,SSW,196,2.0,6.0,72,0.00,,,0.13,95.000000,,2014-02-11 01:31:00,
2014-02-10 17:52:00,50.0,44.0,-100.00,North,3,1.0,4.0,81,0.00,,,0.11,29.000000,,2014-02-11 01:52:00,
2014-02-10 18:01:00,50.0,44.0,-100.00,North,3,1.0,4.0,81,0.00,,,0.11,29.000000,,2014-02-11 02:01:00,
2014-02-10 18:12:00,50.0,44.0,-100.00,North,3,1.0,4.0,81,0.00,,,0.11,29.000000,,2014-02-11 02:12:00,
2014-02-10 18:21:00,50.0,44.0,-100.00,North,3,1.0,4.0,81,0.00,,,0.11,29.000000,,2014-02-11 02:21:00,
2014-02-10 18:31:00,50.0,44.0,-100.00,North,3,1.0,4.0,81,0.00,,,0.11,29.000000,,2014-02-11 02:31:00,
2014-02-10 18:32:00,45.0,43.0,-100.00,West,261,2.0,3.0,94,0.00,,,0.02,0.000000,,2014-02-11 02:32:00,
2014-02-10 18:53:00,45.0,43.0,-100.00,West,261,2.0,3.0,94,0.00,,,0.02,0.000000,,2014-02-11 02:53:00,
2014-02-10 19:02:00,45.0,43.0,-100.00,West,261,2.0,3.0,94,0.00,,,0.02,0.000000,,2014-02-11 03:02:00,
2014-02-10 19:11:00,45.0,43.0,-100.00,West,261,2.0,3.0,94,0.00,,,0.02,0.000000,,2014-02-11 03:11:00,
2014-02-10 19:21:00,45.0,43.0,-100.00,West,261,2.0,3.0,94,0.00,,,0.02,0.000000,,2014-02-11 03:21:00,
2014-02-10 19:32:00,46.0,45.0,-100.00,SE,132,1.0,3.0,96,0.00,,,0.01,0.000000,,2014-02-11 03:32:00,
2014-02-10 19:53:00,46.0,45.0,-100.00,SE,132,1.0,3.0,96,0.00,,,0.01,0.000000,,2014-02-11 03:53:00,
2014-02-10 20:04:00,46.0,45.0,-100.00,SE,132,1.0,3.0,96,0.00,,,0.01,0.000000,,2014-02-11 04:04:00,
2014-02-10 20:13:00,46.0,45.0,-100.00,SE,132,1.0,3.0,96,0.00,,,0.01,0.000000,,2014-02-11 04:13:00,
2014-02-10 20:24:00,46.0,45.0,-100.00,SE,132,1.0,3.0,96,0.00,,,0.01,0.000000,,2014-02-11 04:24:00,
2014-02-10 20:32:00,45.0,44.0,-100.00,WNW,293,1.0,3.0,96,0.00,,,0.00,0.000000,,2014-02-11 04:32:00,
2014-02-10 20:53:00,45.0,44.0,-100.00,WNW,293,1.0,3.0,96,0.00,,,0.00,0.000000,,2014-02-11 04:53:00,
2014-02-10 21:02:00,45.0,44.0,-100.00,WNW,293,1.0,3.0,96,0.00,,,0.00,0.000000,,2014-02-11 05:02:00,
2014-02-10 21:12:00,45.0,44.0,-100.00,WNW,293,1.0,3.0,96,0.00,,,0.00,0.000000,,2014-02-11 05:12:00,
2014-02-10 21:22:00,45.0,44.0,-100.00,WNW,293,1.0,3.0,96,0.00,,,0.00,0.000000,,2014-02-11 05:22:00,
2014-02-10 21:32:00,44.0,43.0,-100.00,NW,323,2.0,3.0,95,0.00,,,0.00,0.000000,,2014-02-11 05:32:00,
2014-02-10 21:53:00,44.0,43.0,-100.00,NW,323,2.0,3.0,95,0.00,,,0.00,0.000000,,2014-02-11 05:53:00,
2014-02-10 22:02:00,44.0,43.0,-100.00,NW,323,2.0,3.0,95,0.00,,,0.00,0.000000,,2014-02-11 06:02:00,
2014-02-10 22:12:00,44.0,43.0,-100.00,NW,323,2.0,3.0,95,0.00,,,0.00,0.000000,,2014-02-11 06:12:00,
2014-02-10 22:21:00,44.0,43.0,-100.00,NW,323,2.0,3.0,95,0.00,,,0.00,0.000000,,2014-02-11 06:21:00,
2014-02-10 22:32:00,43.0,42.0,-100.00,NW,326,2.0,3.0,97,0.00,,,0.00,0.000000,,2014-02-11 06:32:00,
2014-02-10 22:52:00,43.0,42.0,-100.00,NW,326,2.0,3.0,97,0.00,,,0.00,0.000000,,2014-02-11 06:52:00,
2014-02-10 23:02:00,43.0,42.0,-100.00,NW,326,2.0,3.0,97,0.00,,,0.00,0.000000,,2014-02-11 07:02:00,
2014-02-10 23:11:00,43.0,42.0,-100.00,NW,326,2.0,3.0,97,0.00,,,0.00,0.000000,,2014-02-11 07:11:00,
2014-02-10 23:22:00,43.0,42.0,-100.00,NW,326,2.0,3.0,97,0.00,,,0.00,0.000000,,2014-02-11 07:22:00,
2014-02-10 23:32:00,40.0,39.0,-100.00,NNW,334,2.0,4.0,98,0.00,,,0.00,0.000000,,2014-02-11 07:32:00,
2014-02-10 23:52:00,40.0,39.0,-100.00,NNW,334,2.0,4.0,98,0.00,,,0.00,0.000000,,2014-02-11 07:52:00,